[[{"header":{"parameterUnit":"m.s-1","parameterCategory":1,"la1":30.2991,"la2":30.254,"lo1":-89.0895,"lo2":-89.0444,"dy":0.0017,"dx":0.0017,"nx":28,"ny":28,"refTime":"2025-12-06T03:00:00:Z","depth":0,"parameterNumber":2,"parameterNumberName":"U-component_of_WINDS"},"data":[0,0,0,0,0,0,0,0,0,0,0,0,0,0,0,0,0,0,0,0,0,0,0,0,0,0,0,0,0,0,0,0,0,0,0,0,0,0,0,0,0,0,0,0,0,0,0,0,0,0,0,0,0,0,0,0,0,0,-1.3483,-1.3484,0,-1.354,-1.354,-1.3541,-1.3492,-1.349,-1.3488,-1.3487,-1.3549,-1.3552,-1.3556,0,0,0,0,0,0,0,0,0,0,0,0,0,-1.3338,-1.3341,-1.3483,-1.3484,-1.3485,-1.3539,-1.354,-1.3541,-1.3493,-1.349,-1.3488,-1.3486,-1.3547,-1.3552,-1.3556,0,0,0,0,0,0,0,0,0,0,0,0,0,-1.3398,-1.3342,-1.3483,-1.3467,-1.3466,-1.3539,-1.354,-1.3541,-1.3493,-1.349,-1.3487,-1.3484,-1.3546,-1.3551,-1.3556,-1.365,0,0,-1.3573,-1.3575,0,0,0,0,0,0,0,0,-1.3395,-1.3404,-1.3469,-1.3468,-1.3467,-1.3506,-1.3512,-1.3578,-1.3494,-1.3483,-1.3486,-1.3483,-1.3537,-1.3543,-1.356,-1.3653,-1.3655,-1.3573,-1.3576,-1.3579,-1.358,0,0,0,0,0,0,0,-1.3391,-1.3401,-1.3506,-1.347,-1.3469,-1.3458,-1.3464,-1.3524,-1.3527,-1.3484,-1.3481,-1.3488,-1.3536,-1.3555,-1.3561,-1.3656,-1.3573,-1.3578,-1.3581,-1.3583,-1.3828,-1.3831,0,0,0,0,0,0,-1.3388,-1.3398,-1.3504,-1.3507,-1.3423,-1.3463,-1.3469,-1.3497,-1.3526,-1.3527,-1.349,-1.3485,-1.3548,-1.3555,-1.3563,-1.3675,-1.3579,-1.3584,-1.3587,-1.3825,-1.3829,-1.3832,0,0,0,0,0,0,-1.3385,-1.3398,-1.3502,-1.3452,-1.3464,-1.3469,-1.35,-1.3499,-1.3518,-1.353,-1.3531,-1.3509,-1.3546,-1.3556,-1.3628,-1.3676,-1.3586,-1.3591,-1.3821,-1.3826,-1.3831,-1.3899,0,0,0,0,0,0,-1.3381,-1.3397,-1.3432,-1.3453,-1.3467,-1.3565,-1.3503,-1.3503,-1.3527,-1.3521,-1.3548,-1.355,-1.3544,-1.3621,-1.3634,-1.3682,-1.3595,-1.3817,-1.3823,-1.3829,-1.3892,-1.3905,-1.3916,0,0,0,0,0,-1.3376,-1.3449,-1.3434,-1.3447,-1.351,-1.3568,-1.3576,-1.3566,-1.3531,-1.3567,-1.3574,-1.3549,-1.3669,-1.3628,-1.3643,-1.3693,-1.3813,-1.3821,-1.3828,-1.3887,-1.3903,-1.3916,0,0,0,0,0,0,-1.3435,-1.3452,-1.3435,-1.3517,-1.3541,-1.3559,-1.3604,-1.3584,-1.362,-1.3613,-1.3601,-1.3607,-1.3684,-1.3695,-1.365,-1.3785,-1.3736,-1.3746,-1.3775,-1.379,-1.3802,-1.3799,-1.3599,0,0,0,0,0,-1.3458,-1.3502,-1.3514,-1.3586,-1.3599,-1.3599,-1.3624,-1.3614,-1.3639,-1.365,-1.3663,-1.3689,-1.3733,-1.3762,-1.3803,-1.3893,-1.3899,-1.3935,-1.3947,-1.3957,-1.3967,-1.4016,-1.4033,-1.3857,-1.3857,-1.3857,0,0,-1.3505,-1.352,-1.3549,-1.3598,-1.3616,-1.3663,-1.3608,-1.366,-1.3696,-1.3658,-1.3727,-1.3738,-1.3766,-1.3848,-1.3885,-1.3861,-1.4016,-1.3966,-1.3974,-1.3979,-1.4026,-1.4042,-1.4057,-1.3862,-1.3861,-1.386,0,0,-1.3616,-1.3631,-1.3692,-1.3711,-1.3737,-1.3737,-1.3752,-1.3773,-1.3778,-1.3846,-1.3819,-1.3861,-1.3936,-1.3958,-1.3979,-1.4097,-1.4075,-1.411,-1.4175,-1.4223,-1.4237,-1.4249,-1.4292,-1.4308,-1.412,-1.412,-1.412,0,-1.3673,-1.3741,-1.3727,-1.3781,-1.3804,-1.377,-1.3833,-1.3852,-1.3891,-1.3908,-1.388,-1.3973,-1.399,-1.4077,-1.4105,-1.4123,-1.414,-1.4108,-1.4236,-1.4248,-1.4259,-1.43,-1.4316,-1.4124,-1.4124,-1.4123,-1.4123,0,-1.3809,-1.3857,-1.3904,-1.3941,-1.3969,-1.4027,-1.4023,-1.4053,-1.4041,-1.4044,-1.4115,-1.4133,-1.4177,-1.4197,-1.4186,-1.4282,-1.4266,-1.4237,-1.4187,-1.428,-1.4319,-1.4334,-1.413,-1.4129,-1.4127,-1.4126,0,0,-1.3961,-1.3988,-1.4006,-1.4022,-1.4049,-1.4086,-1.4143,-1.4184,-1.4211,-1.4239,-1.4287,-1.4351,-1.4324,-1.4347,-1.4338,-1.438,-1.4474,-1.4346,-1.4347,-1.437,-1.4582,-1.4605,-1.4623,-1.4459,-1.4462,-1.4464,-1.458,0,-1.4074,-1.4171,-1.416,-1.4254,-1.4298,-1.4266,-1.4316,-1.4338,-1.4342,-1.4382,-1.4386,-1.4432,-1.4392,-1.4406,-1.4446,-1.4454,-1.4516,-1.4445,-1.4505,-1.4507,-1.45,-1.4643,-1.4668,-1.4776,-1.4595,-1.4597,-1.4599,0,-1.4219,-1.425,-1.4348,-1.4367,-1.4386,-1.443,-1.4467,-1.4505,-1.4529,-1.4529,-1.4555,-1.4539,-1.4597,-1.4544,-1.4625,-1.4577,-1.46,-1.4608,-1.4612,-1.4618,-1.456,-1.4655,-1.4811,-1.4827,-1.4622,-1.462,-1.4619,0,-1.4321,-1.4388,-1.4455,-1.447,-1.4494,-1.4526,-1.4538,-1.4559,-1.4585,-1.4617,-1.4634,-1.4673,-1.4695,-1.4727,-1.4722,-1.4684,-1.4804,-1.4751,-1.4807,-1.4808,-1.4836,-1.4834,-1.4999,-1.4849,-1.4848,-1.4848,-1.4848,0,-1.4449,-1.4511,-1.4502,-1.4543,-1.4611,-1.4597,-1.4666,-1.4673,-1.4692,-1.4736,-1.471,-1.4752,-1.4742,-1.4783,-1.478,-1.4848,-1.4858,-1.486,-1.4859,-1.4863,-1.4863,-1.488,-1.4873,-1.4852,-1.4851,-1.4851,-1.485,0,-1.4576,-1.4572,-1.4643,-1.4659,-1.4665,-1.4714,-1.4728,-1.4768,-1.4769,-1.4824,-1.4837,-1.4839,-1.4887,-1.4884,-1.4938,-1.4936,-1.502,-1.5009,-1.5011,-1.5009,-1.5066,-1.5061,-1.5248,-1.5273,-1.5105,-1.5107,-1.5108,0,-1.4659,-1.4705,-1.4726,-1.4752,-1.4765,-1.4808,-1.4834,-1.4822,-1.485,-1.4881,-1.4917,-1.4961,-1.4997,-1.5074,-1.5082,-1.5123,-1.5114,-1.5176,-1.512,-1.5123,-1.5116,-1.5114,-1.5119,-1.5188,-1.519,-1.5192,-1.5193,0,-1.4807,-1.4802,-1.4839,-1.4875,-1.4906,-1.4934,-1.496,-1.4984,-1.4975,-1.5007,-1.5054,-1.5082,-1.5136,-1.5181,-1.522,-1.5233,-1.5213,-1.521,-1.5225,-1.5231,-1.5231,-1.5233,-1.5043,-1.5206,-1.5205,-1.5204,-1.5203,-1.5203,-1.4915,-1.4954,-1.4975,-1.5017,-1.5034,-1.5059,-1.5097,-1.5102,-1.5141,-1.5183,-1.5174,-1.5227,-1.5251,-1.5301,-1.5317,-1.536,-1.5338,-1.536,-1.5366,-1.5372,-1.5378,-1.5223,-1.5367,-1.5366,-1.5366,-1.5366,-1.5365,0,-1.5062,-1.5073,-1.5112,-1.5148,-1.5181,-1.5156,-1.5183,-1.5213,-1.526,-1.5283,-1.5317,-1.5372,-1.5415,-1.5425,-1.5467,-1.5499,-1.5491,-1.5511,-1.5509,-1.5513,-1.5395,-1.5378,-1.5517,-1.5517,-1.5517,-1.5517,-1.5517,-1.5517,-1.5143,-1.5209,-1.5206,-1.5281,-1.5292,-1.5343,-1.5361,-1.5383,-1.5401,-1.5463,-1.5498,-1.5504,-1.5522,-1.5564,-1.5603,-1.5605,-1.5623,-1.5647,-1.5645,-1.5536,-1.5521,-1.5506,-1.549,-1.565,-1.565,-1.5759,-1.576,-1.5761]},{"header":{"parameterUnit":"m.s-1","parameterCategory":1,"la1":30.2991,"la2":30.254,"lo1":-89.0895,"lo2":-89.0444,"dy":0.0017,"dx":0.0017,"nx":28,"ny":28,"refTime":"2025-12-06T03:00:00:Z","depth":0,"parameterNumber":3,"parameterNumberName":"V-component_of_WINDS"},"data":[0,0,0,0,0,0,0,0,0,0,0,0,0,0,0,0,0,0,0,0,0,0,0,0,0,0,0,0,0,0,0,0,0,0,0,0,0,0,0,0,0,0,0,0,0,0,0,0,0,0,0,0,0,0,0,0,0,0,-2.112,-2.112,0,-2.1084,-2.1083,-2.1083,-2.1031,-2.103,-2.1029,-2.1028,-2.099,-2.099,-2.099,0,0,0,0,0,0,0,0,0,0,0,0,0,-2.1144,-2.1144,-2.112,-2.112,-2.1119,-2.1084,-2.1083,-2.1083,-2.1031,-2.103,-2.1029,-2.1028,-2.099,-2.099,-2.099,0,0,0,0,0,0,0,0,0,0,0,0,0,-2.1123,-2.1144,-2.112,-2.1089,-2.1086,-2.1084,-2.1083,-2.1082,-2.1031,-2.103,-2.1028,-2.1027,-2.099,-2.099,-2.099,-2.1015,0,0,-2.0989,-2.0989,0,0,0,0,0,0,0,0,-2.1124,-2.1122,-2.1094,-2.1091,-2.1088,-2.106,-2.1077,-2.106,-2.1031,-2.1052,-2.1028,-2.1026,-2.1014,-2.1012,-2.1008,-2.1013,-2.1012,-2.0989,-2.0989,-2.0989,-2.0988,0,0,0,0,0,0,0,-2.1126,-2.1123,-2.1106,-2.1094,-2.109,-2.1076,-2.1072,-2.1074,-2.1041,-2.105,-2.1046,-2.1042,-2.1012,-2.1009,-2.1007,-2.1011,-2.0989,-2.0989,-2.0988,-2.0988,-2.1033,-2.1035,0,0,0,0,0,0,-2.1132,-2.1125,-2.1107,-2.1104,-2.1103,-2.1077,-2.1072,-2.107,-2.1041,-2.1035,-2.1044,-2.104,-2.101,-2.1007,-2.1005,-2.1032,-2.0989,-2.0988,-2.0988,-2.1032,-2.1034,-2.1035,0,0,0,0,0,0,-2.1133,-2.1131,-2.1108,-2.1114,-2.111,-2.1078,-2.1077,-2.107,-2.1066,-2.1036,-2.103,-2.1046,-2.1009,-2.1006,-2.1013,-2.103,-2.0988,-2.0988,-2.1031,-2.1033,-2.1035,-2.1087,0,0,0,0,0,0,-2.1134,-2.1131,-2.1141,-2.1114,-2.111,-2.1117,-2.1078,-2.1071,-2.1066,-2.1061,-2.1037,-2.1031,-2.1007,-2.1013,-2.1012,-2.1029,-2.0988,-2.1029,-2.1031,-2.1034,-2.1084,-2.1091,-2.1097,0,0,0,0,0,-2.1135,-2.1157,-2.1142,-2.114,-2.1121,-2.1118,-2.1115,-2.1087,-2.1068,-2.1077,-2.1057,-2.1032,-2.1029,-2.1015,-2.1013,-2.103,-2.1028,-2.1031,-2.1034,-2.1081,-2.109,-2.1097,0,0,0,0,0,0,-2.1187,-2.1153,-2.1136,-2.1151,-2.1138,-2.1109,-2.112,-2.1098,-2.109,-2.1085,-2.1051,-2.1046,-2.1057,-2.1044,-2.1029,-2.1052,-2.1024,-2.1027,-2.1061,-2.1068,-2.1075,-2.1078,-2.0988,0,0,0,0,0,-2.1201,-2.1201,-2.1171,-2.1187,-2.1182,-2.1152,-2.115,-2.1129,-2.1114,-2.1108,-2.1089,-2.1075,-2.1071,-2.1069,-2.1063,-2.1081,-2.1075,-2.1092,-2.1099,-2.1104,-2.1107,-2.1115,-2.1122,-2.1045,-2.1045,-2.1045,0,0,-2.1228,-2.121,-2.1212,-2.1197,-2.1185,-2.1186,-2.1148,-2.1151,-2.1151,-2.1109,-2.1114,-2.11,-2.1082,-2.1094,-2.1099,-2.1084,-2.1127,-2.1108,-2.1113,-2.1113,-2.1119,-2.1126,-2.1133,-2.1047,-2.1047,-2.1047,0,0,-2.1279,-2.1265,-2.1277,-2.1265,-2.1246,-2.1226,-2.1229,-2.1204,-2.1193,-2.1197,-2.1166,-2.1165,-2.1158,-2.1147,-2.114,-2.1185,-2.1161,-2.1184,-2.1219,-2.1227,-2.1233,-2.1238,-2.1254,-2.126,-2.1187,-2.1187,-2.1187,0,-2.1316,-2.1316,-2.1286,-2.129,-2.1284,-2.1246,-2.1257,-2.1247,-2.1228,-2.1224,-2.1208,-2.1198,-2.1183,-2.1192,-2.1203,-2.1199,-2.1201,-2.1187,-2.1234,-2.1239,-2.1244,-2.1258,-2.1264,-2.119,-2.119,-2.119,-2.1189,0,-2.1362,-2.1363,-2.1374,-2.1356,-2.1352,-2.136,-2.133,-2.1329,-2.1308,-2.129,-2.1295,-2.1276,-2.1265,-2.1265,-2.1246,-2.1271,-2.1263,-2.1241,-2.1212,-2.1254,-2.1268,-2.1273,-2.1194,-2.1193,-2.1193,-2.1192,0,0,-2.1446,-2.141,-2.1415,-2.1406,-2.1382,-2.1382,-2.1388,-2.1378,-2.1377,-2.1365,-2.1368,-2.1363,-2.1342,-2.1335,-2.1313,-2.132,-2.1356,-2.1297,-2.1296,-2.1308,-2.1383,-2.1399,-2.1407,-2.134,-2.1341,-2.1342,-2.1384,0,-2.1492,-2.15,-2.1473,-2.1488,-2.1488,-2.1451,-2.1456,-2.1441,-2.1424,-2.1421,-2.1401,-2.1398,-2.1371,-2.1366,-2.1371,-2.1351,-2.1371,-2.1347,-2.1343,-2.1343,-2.1349,-2.1413,-2.1431,-2.1472,-2.1389,-2.139,-2.139,0,-2.1548,-2.1538,-2.1553,-2.1528,-2.1527,-2.1532,-2.152,-2.1517,-2.15,-2.1486,-2.1477,-2.1452,-2.1455,-2.1427,-2.143,-2.1415,-2.1411,-2.14,-2.1401,-2.14,-2.137,-2.1414,-2.1485,-2.1491,-2.1398,-2.1398,-2.1397,0,-2.1607,-2.1598,-2.1606,-2.1599,-2.157,-2.1574,-2.1562,-2.1543,-2.1538,-2.1527,-2.1524,-2.1513,-2.1508,-2.15,-2.1472,-2.1454,-2.1478,-2.1448,-2.1467,-2.1468,-2.1474,-2.1474,-2.1546,-2.1471,-2.1471,-2.1471,-2.1471,0,-2.1662,-2.1673,-2.1632,-2.1637,-2.1648,-2.1615,-2.1626,-2.161,-2.1594,-2.1594,-2.1561,-2.1562,-2.1525,-2.1522,-2.15,-2.1506,-2.1503,-2.1492,-2.1486,-2.1495,-2.1497,-2.1493,-2.1489,-2.1473,-2.1472,-2.1472,-2.1472,0,-2.1731,-2.1704,-2.171,-2.1682,-2.1675,-2.1684,-2.1659,-2.1662,-2.1642,-2.1643,-2.1641,-2.161,-2.1604,-2.1575,-2.1563,-2.1548,-2.1561,-2.1549,-2.1567,-2.1563,-2.1584,-2.1582,-2.1655,-2.1663,-2.1584,-2.1585,-2.1586,0,-2.1768,-2.1776,-2.1748,-2.1746,-2.1735,-2.1732,-2.1727,-2.1695,-2.1691,-2.1671,-2.1676,-2.1668,-2.1659,-2.1652,-2.1627,-2.1617,-2.1605,-2.1631,-2.1603,-2.1612,-2.1605,-2.1605,-2.1606,-2.1637,-2.1638,-2.1639,-2.164,0,-2.1837,-2.1823,-2.1817,-2.1806,-2.1801,-2.1791,-2.1779,-2.1779,-2.1743,-2.174,-2.1734,-2.1728,-2.1715,-2.1706,-2.1692,-2.1678,-2.1653,-2.1649,-2.1652,-2.1662,-2.1672,-2.1667,-2.1584,-2.1647,-2.1647,-2.1646,-2.1646,-2.1645,-2.1891,-2.1895,-2.1876,-2.1871,-2.1858,-2.1847,-2.1849,-2.1828,-2.1823,-2.181,-2.1791,-2.1787,-2.1768,-2.1746,-2.1734,-2.173,-2.1716,-2.1722,-2.1723,-2.1725,-2.173,-2.1673,-2.1727,-2.1727,-2.1727,-2.1727,-2.1727,0,-2.1958,-2.1943,-2.1939,-2.1923,-2.1918,-2.1894,-2.1879,-2.1877,-2.1874,-2.1859,-2.1851,-2.1843,-2.1835,-2.1809,-2.1798,-2.18,-2.1788,-2.1798,-2.1797,-2.1795,-2.1743,-2.1741,-2.1808,-2.1808,-2.1808,-2.1808,-2.1808,-2.1808,-2.1992,-2.1999,-2.1982,-2.1982,-2.1967,-2.1963,-2.1957,-2.1946,-2.1934,-2.1927,-2.192,-2.1903,-2.1883,-2.187,-2.1861,-2.1853,-2.1851,-2.1865,-2.1854,-2.1806,-2.1798,-2.1791,-2.1789,-2.1864,-2.1864,-2.1905,-2.1906,-2.1906]}]]